Find Starlink 34136

NORAD ID: 64112 Int'l Des: 2025-110 Owner: SPXS Country: US Constellation: starlink operational
LEOCIRCULAR

当前视图

正在加载3D地球...

About Starlink 34136

Starlink 34136 (NORAD 64112) is a starlink constellation satellite (v2 mini) launched May 23, 2025 by SPXS of US. It operates in LEO, CIRCULAR orbit with a mass of 575.00 kg.

即将过境

Passes for default location (London). Set your location on the main map for personalized predictions.

高度历史

Loading altitude history...

两行轨道根数

1 64112U 25110S 26236.63120247 .00022601 00000-0 73743-3 0 9995
2 64112 53.1607 325.3762 0001420 77.5937 282.5224 15.31718551 71618
Epoch: Aug 24, 2026 • Age: 22 hours

当前状态

高度 476.2 km
远地点 / 近地点 N/A
速度 7.63 km/s
星下点 53.31°N, 124.33°W
发射日期 May 23, 2025
运行时间 1.2 years
类型 internet

技术详情

分类 Payload
质量 575.00 kg
干质量 530.00 kg
总质量 575.00 kg
长度 0.30 m
直径 4.10 m
跨度 29.00 m
形状 Box + pan
制造商 SPXS
平台类型 Starlink V2MO
阶段状态 In Orbit
所有者/国家 SPXS/US

Most Searched